This is the latest recevied weather packets stored in our database for station/object KO4ZGL-13. If no packets are shown the sender has not sent any weather packets the latest 10 day(s).
| Time | Temp. | Humidity | Pressure | Rain* | Wind** | Luminosity | Snow |
|---|---|---|---|---|---|---|---|
| 1787681344 | 32.22° C | 71% | 1016.9 hPa | 0 mm | - | 609 W/m² | - |
| 1787681040 | 33.33° C | 70% | 1016.9 hPa | 0 mm | - | 560 W/m² | - |
| 1787680739 | 32.78° C | 72% | 1016.9 hPa | 0 mm | - | 629 W/m² | - |
| 1787680434 | 32.78° C | 71% | 1017 hPa | 0 mm | - | 606 W/m² | - |
| 1787680132 | 32.78° C | 72% | 1016.9 hPa | 0 mm | - | 536 W/m² | - |
| 1787679827 | 32.78° C | 71% | 1017.2 hPa | 0 mm | - | 621 W/m² | - |
| 1787679526 | 32.78° C | 74% | 1017.2 hPa | 0 mm | - | 577 W/m² | - |
| 1787679223 | 32.78° C | 72% | 1017.3 hPa | 0 mm | - | 517 W/m² | - |
| 1787678918 | 32.78° C | 71% | 1017.3 hPa | 0 mm | - | 517 W/m² | - |
| 1787678617 | 32.78° C | 75% | 1017.6 hPa | 0 mm | - | 666 W/m² | - |
| 1787678312 | 32.22° C | 72% | 1017.5 hPa | 0 mm | - | 583 W/m² | - |
| 1787678007 | 31.67° C | 74% | 1017.8 hPa | 0 mm | - | 652 W/m² | - |
| 1787677702 | 31.67° C | 74% | 1017.7 hPa | 0 mm | - | 592 W/m² | - |
| 1787677400 | 31.11° C | 75% | 1017.7 hPa | 0 mm | - | 724 W/m² | - |
| 1787677095 | 30.56° C | 78% | 1017.6 hPa | 0 mm | - | 731 W/m² | - |
| 1787676791 | 31.11° C | 78% | 1018 hPa | 0 mm | - | 307 W/m² | - |
| 1787676485 | 30.56° C | 76% | 1018.1 hPa | 0 mm | - | 315 W/m² | - |
| 1787676183 | 30.56° C | 76% | 1018.1 hPa | 0 mm | - | 379 W/m² | - |
| 1787675877 | 31.11° C | 77% | 1018.2 hPa | 0 mm | - | 340 W/m² | - |
| 1787675573 | 30.56° C | 78% | 1018.2 hPa | 0 mm | - | 457 W/m² | - |
| 1787675271 | 29.44° C | 78% | 1018.1 hPa | 0 mm | - | 422 W/m² | - |
| 1787674966 | 30° C | 77% | 1018.4 hPa | 0 mm | - | 248 W/m² | - |
| 1787674661 | 30.56° C | 75% | 1018.4 hPa | 0 mm | - | 396 W/m² | - |
| 1787674357 | 30.56° C | 77% | 1018.5 hPa | 0 mm | - | 477 W/m² | - |
| 1787674047 | 31.11° C | 76% | 1018.3 hPa | 0 mm | - | 318 W/m² | - |
* Rain latest hour (hover to see other rain measurements)
** Current wind speed in m/s (hover to see current wind gust speed)